Tracking 33446 objects as of 10-Mar-2026
HD Live streaming from Space Station
objects crossing your sky now

STARLINK-35534

Track STARLINK-35534 now!
10-day predictions
STARLINK-35534 is classified as:


NORAD ID: 66202
Int'l Code: 2025-243AB
Perigee: 481.8 km
Apogee: 482.9 km
Inclination: 53.2 °
Period: 94.1 minutes
Semi major axis: 6853 km
RCS: Unknown
Launch date: October 26, 2025
Source: United States (US)
Launch site: AIR FORCE EASTERN TEST RANGE (AFETR)
Your satellite tracking list
Your tracking list is empty




NASA's NSSDC Master Catalog

Two Line Element Set (TLE):
1 66202U 25243AB  26068.75130694  .00027200  00000-0  92720-3 0  9993
2 66202  53.1599 244.9327 0000827  53.0070 307.1007 15.30197677 20661
Source of the keplerian elements: AFSPC